H1 CPF 2 NER 2021 5 3 9 123 01 glonass122 H2 1004103 9122 37139 2021 5 3 0 0 0 2021 5 6 23 45 0 900 1 1 0 0 0 1 H9 10 0 59337 0.00000 0 -17057570.727 -257364.462 18991702.491 10 0 59337 900.00000 0 -18987877.140 -1359773.426 17023780.695 10 0 59337 1800.00000 0 -20759467.023 -2198387.840 14726359.861 10 0 59337 2700.00000 0 -22312153.773 -2785422.829 12144188.006 10 0 59337 3600.00000 0 -23591424.964 -3144443.061 9327405.593 10 0 59337 4500.00000 0 -24550644.386 -3309101.001 6330573.146 10 0 59337 5400.00000 0 -25152941.542 -3321458.715 3211622.867 10 0 59337 6300.00000 0 -25372712.687 -3229964.999 30753.690 10 0 59337 7200.00000 0 -25196673.570 -3087173.162 -3150710.124 10 0 59337 8100.00000 0 -24624422.381 -2947294.694 -6271476.634 10 0 59337 9000.00000 0 -23668491.032 -2863690.186 -9271439.984 10 0 59337 9900.00000 0 -22353883.398 -2886400.964 -12092810.294 10 0 59337 10800.00000 0 -20717119.490 -3059823.047 -14681200.462 10 0 59337 11700.00000 0 -18804824.086 -3420619.245 -16986651.335 10 0 59337 12600.00000 0 -16671916.457 -3995955.688 -18964577.595 10 0 59337 13500.00000 0 -14379473.617 -4802136.294 -20576618.005 10 0 59337 14400.00000 0 -11992352.640 -5843693.005 -21791374.849 10 0 59337 15300.00000 0 -9576667.548 -7112971.598 -22585028.875 10 0 59337 16200.00000 0 -7197222.457 -8590233.218 -22941817.702 10 0 59337 17100.00000 0 -4915005.019 -10244271.132 -22854367.510 10 0 59337 18000.00000 0 -2784842.690 -12033521.176 -22323869.773 10 0 59337 18900.00000 0 -853318.476 -13907624.035 -21360097.227 10 0 59337 19800.00000 0 842966.813 -15809378.385 -19981255.697 10 0 59337 20700.00000 0 2278712.088 -17677006.805 -18213671.411 10 0 59337 21600.00000 0 3440756.351 -19446642.302 -16091316.444 10 0 59337 22500.00000 0 4328404.363 -21054932.673 -13655178.384 10 0 59337 23400.00000 0 4953221.450 -22441653.382 -10952483.888 10 0 59337 24300.00000 0 5338303.962 -23552217.851 -8035789.381 10 0 59337 25200.00000 0 5517054.664 -24339977.065 -4961955.704 10 0 59337 26100.00000 0 5531514.243 -24768208.244 -1791026.938 10 0 59337 27000.00000 0 5430320.115 -24811705.052 1414963.469 10 0 59337 27900.00000 0 5266380.826 -24457898.548 4593233.849 10 0 59337 28800.00000 0 5094367.416 -23707458.487 7681515.413 10 0 59337 29700.00000 0 4968131.785 -22574347.412 10619305.303 10 0 59337 30600.00000 0 4938165.629 -21085324.223 13349083.609 10 0 59337 31500.00000 0 5049211.672 -19278918.450 15817467.106 10 0 59337 32400.00000 0 5338132.062 -17203919.888 17976274.411 10 0 59337 33300.00000 0 5832126.955 -14917449.458 19783479.678 10 0 59337 34200.00000 0 6547380.369 -12482695.354 21204035.021 10 0 59337 35100.00000 0 7488191.045 -9966412.457 22210545.490 10 0 59337 36000.00000 0 8646624.448 -7436292.467 22783784.251 10 0 59337 36900.00000 0 10002698.953 -4958316.788 22913039.568 10 0 59337 37800.00000 0 11525096.160 -2594203.654 22596289.196 10 0 59337 38700.00000 0 13172362.901 -399055.664 21840201.552 10 0 59337 39600.00000 0 14894551.876 1580695.696 20659966.664 10 0 59337 40500.00000 0 16635229.895 3308965.700 19078963.150 10 0 59337 41400.00000 0 18333768.071 4761246.198 17128270.426 10 0 59337 42300.00000 0 19927817.245 5925342.619 14846037.996 10 0 59337 43200.00000 0 21355865.314 6801592.245 12276725.829 10 0 59337 44100.00000 0 22559770.555 7402559.177 9470231.725 10 0 59337 45000.00000 0 23487166.872 7752222.815 6480923.144 10 0 59337 45900.00000 0 24093642.871 7884697.116 3366592.094 10 0 59337 46800.00000 0 24344606.437 7842536.527 187352.524 10 0 59337 47700.00000 0 24216759.620 7674700.717 -2995499.755 10 0 59337 48600.00000 0 23699124.694 7434263.538 -6120644.340 10 0 59337 49500.00000 0 22793580.324 7175961.446 -9127890.642 10 0 59337 50400.00000 0 21514886.492 6953682.612 -11959309.383 10 0 59337 51300.00000 0 19890197.179 6818000.108 -14560321.935 10 0 59337 52200.00000 0 17958080.039 6813850.613 -16880728.960 10 0 59337 53100.00000 0 15767081.972 6978454.228 -18875660.607 10 0 59337 54000.00000 0 13373897.429 7339561.558 -20506431.860 10 0 59337 54900.00000 0 10841212.193 7914101.311 -21741287.803 10 0 59337 55800.00000 0 8235308.639 8707285.931 -22556024.998 10 0 59337 56700.00000 0 5623528.306 9712214.710 -22934476.884 10 0 59337 57600.00000 0 3071693.991 10909993.986 -22868852.860 10 0 59337 58500.00000 0 641596.045 12270373.162 -22359922.776 10 0 59337 59400.00000 0 -1611354.200 13752874.166 -21417040.844 10 0 59337 60300.00000 0 -3640206.759 15308371.404 -20058005.526 10 0 59337 61200.00000 0 -5408203.660 16881059.865 -18308754.830 10 0 59337 62100.00000 0 -6890084.320 18410732.048 -16202899.566 10 0 59337 63000.00000 0 -8072908.927 19835270.164 -13781100.421 10 0 59337 63900.00000 0 -8956362.819 21093249.540 -11090298.399 10 0 59337 64800.00000 0 -9552526.776 22126543.020 -8182811.670 10 0 59337 65700.00000 0 -9885120.988 22882814.653 -5115315.457 10 0 59337 66600.00000 0 -9988253.472 23317794.440 -1947725.063 10 0 59337 67500.00000 0 -9904725.826 23397234.461 1257995.027 10 0 59337 68400.00000 0 -9683969.147 23098459.838 4439070.586 10 0 59337 69300.00000 0 -9379699.790 22411445.401 7533178.414 10 0 59337 70200.00000 0 -9047397.563 21339369.664 10479700.451 10 0 59337 71100.00000 0 -8741717.078 19898620.836 13220943.204 10 0 59337 72000.00000 0 -8513946.018 18118253.964 15703295.207 10 0 59337 72900.00000 0 -8409621.803 16038922.677 17878297.081 10 0 59337 73800.00000 0 -8466410.722 13711332.107 19703601.200 10 0 59337 74700.00000 0 -8712341.440 11194280.490 21143800.946 10 0 59337 75600.00000 0 -9164468.539 8552374.409 22171113.244 10 0 59337 76500.00000 0 -9828022.331 5853516.105 22765901.784 10 0 59337 77400.00000 0 -10696079.514 3166270.277 22917032.372 10 0 59337 78300.00000 0 -11749766.334 557221.752 22622055.784 10 0 59337 79200.00000 0 -12958983.045 -1911565.492 21887217.359 10 0 59337 80100.00000 0 -14283616.235 -4184882.882 20727296.125 10 0 59337 81000.00000 0 -15675185.412 -6216410.317 19165279.583 10 0 59337 81900.00000 0 -17078852.511 -7970366.361 17231883.222 10 0 59337 82800.00000 0 -18435708.551 -9422710.775 14964926.486 10 0 59337 83700.00000 0 -19685241.009 -10561853.881 12408579.114 10 0 59337 84600.00000 0 -20767878.909 -11388847.837 9612493.663 10 0 59337 85500.00000 0 -21627510.212 -11917056.140 6630841.632 10 0 59338 0.00000 0 -22213868.106 -12171318.984 3521271.790 10 0 59338 900.00000 0 -22484688.414 -12186652.197 343809.677 10 0 59338 1800.00000 0 -22407551.298 -12006536.033 -2840280.642 10 0 59338 2700.00000 0 -21961331.078 -11680866.143 -5969653.719 10 0 59338 3600.00000 0 -21137197.283 -11263652.287 -8984037.636 10 0 59338 4500.00000 0 -19939125.127 -10810559.941 -11825367.058 10 0 59338 5400.00000 0 -18383895.003 -10376396.071 -14438875.056 10 0 59338 6300.00000 0 -16500580.132 -10012642.301 -16774125.127 10 0 59338 7200.00000 0 -14329542.059 -9765136.808 -18785965.618 10 0 59338 8100.00000 0 -11920973.149 -9672000.440 -20435390.071 10 0 59338 9000.00000 0 -9333043.233 -9761892.987 -21690288.220 10 0 59338 9900.00000 0 -6629723.720 -10052672.668 -22526073.736 10 0 59338 10800.00000 0 -3878375.503 -10550516.044 -22926176.569 10 0 59338 11700.00000 0 -1147197.147 -11249537.356 -22882389.444 10 0 59338 12600.00000 0 1497363.759 -12131926.308 -22395060.133 10 0 59338 13500.00000 0 3993130.782 -13168602.241 -21473123.371 10 0 59338 14400.00000 0 6284546.821 -14320361.369 -20133968.860 10 0 59338 15300.00000 0 8324752.519 -15539472.863 -18403144.631 10 0 59338 16200.00000 0 10077307.318 -16771660.209 -16313898.131 10 0 59338 17100.00000 0 11517479.478 -17958387.094 -13906560.777 10 0 59338 18000.00000 0 12633048.634 -19039352.904 -11227785.288 10 0 59338 18900.00000 0 13424584.731 -19955092.666 -8329648.729 10 0 59338 19800.00000 0 13905189.364 -20649570.395 -5268637.681 10 0 59338 20700.00000 0 14099708.714 -21072653.692 -2104535.514 10 0 59338 21600.00000 0 14043450.647 -21182361.598 1100765.444 10 0 59338 22500.00000 0 13780460.616 -20946786.674 4284501.570 10 0 59338 23400.00000 0 13361430.935 -20345606.104 7384298.305 10 0 59338 24300.00000 0 12841334.630 -19371114.418 10339425.227 10 0 59338 25200.00000 0 12276887.597 -18028731.552 13092017.825 10 0 59338 26100.00000 0 11723950.439 -16336963.289 15588238.608 10 0 59338 27000.00000 0 11234983.922 -14326815.430 17779352.023 10 0 59338 27900.00000 0 10856669.161 -12040687.226 19622690.051 10 0 59338 28800.00000 0 10627795.783 -9530792.444 21082488.293 10 0 59338 29700.00000 0 10577508.790 -6857176.798 22130576.046 10 0 59338 30600.00000 0 10723988.381 -4085417.367 22746907.603 10 0 59338 31500.00000 0 11073617.452 -1284102.817 22919925.984 10 0 59338 32400.00000 0 11620669.842 1477798.634 22646754.317 10 0 59338 33300.00000 0 12347529.688 4133572.796 21933213.900 10 0 59338 34200.00000 0 13225429.461 6621285.097 20793671.558 10 0 59338 35100.00000 0 14215672.461 8886094.462 19250722.302 10 0 59338 36000.00000 0 15271285.547 10882261.770 17334716.181 10 0 59338 36900.00000 0 16339030.428 12574772.731 15083140.964 10 0 59338 37800.00000 0 17361687.727 13940511.799 12539874.458 10 0 59338 38700.00000 0 18280517.523 14968942.778 9754322.204 10 0 59338 39600.00000 0 19037793.653 15662272.061 6780457.880 10 0 59338 40500.00000 0 19579306.868 16035091.817 3675784.934 10 0 59338 41400.00000 0 19856733.849 16113521.290 500238.767 10 0 59338 42300.00000 0 19829775.157 15933884.426 -2684950.481 10 0 59338 43200.00000 0 19467974.949 15540980.458 -5818414.368 10 0 59338 44100.00000 0 18752148.349 14986019.964 -8839801.657 10 0 59338 45000.00000 0 17675358.326 14324312.015 -11690912.881 10 0 59338 45900.00000 0 16243401.889 13612797.651 -14316794.640 10 0 59338 46800.00000 0 14474784.985 12907530.869 -16666774.971 10 0 59338 47700.00000 0 12400185.773 12261210.331 -18695422.009 10 0 59338 48600.00000 0 10061426.239 11720863.035 -20363409.358 10 0 59338 49500.00000 0 7509991.629 11325775.345 -21638272.824 10 0 59338 50400.00000 0 4805155.436 11105757.179 -22495044.543 10 0 59338 51300.00000 0 2011783.658 11079812.208 -22916752.245 10 0 59338 52200.00000 0 -802094.656 11255270.983 -22894773.118 10 0 59338 53100.00000 0 -3567853.233 11627425.506 -22429033.780 10 0 59338 54000.00000 0 -6218867.189 12179683.653 -21528050.142 10 0 59338 54900.00000 0 -8693038.317 12884240.537 -20208803.453 10 0 59338 55800.00000 0 -10935142.658 13703242.402 -18496451.674 10 0 59338 56700.00000 0 -12898902.166 14590397.627 -16423878.387 10 0 59338 57600.00000 0 -14548692.598 15492969.920 -14031084.823 10 0 59338 58500.00000 0 -15860813.936 16354071.526 -11364434.140 10 0 59338 59400.00000 0 -16824267.528 17115160.336 -8475760.678 10 0 59338 60300.00000 0 -17441004.737 17718634.656 -5421360.475 10 0 59338 61200.00000 0 -17725634.388 18110413.889 -2260882.809 10 0 59338 62100.00000 0 -17704600.005 18242392.845 943854.536 10 0 59338 63000.00000 0 -17414861.238 18074661.969 4130101.142 10 0 59338 63900.00000 0 -16902136.072 17577395.417 7235433.855 10 0 59338 64800.00000 0 -16218780.224 16732323.157 10199012.812 10 0 59338 65700.00000 0 -15421396.452 15533721.571 12962805.498 10 0 59338 66600.00000 0 -14568278.612 13988878.395 15472751.444 10 0 59338 67500.00000 0 -13716802.476 12118011.264 17679841.928 10 0 59338 68400.00000 0 -12920877.240 9953643.288 19541091.411 10 0 59338 69300.00000 0 -12228568.433 7539463.176 21020380.369 10 0 59338 70200.00000 0 -11679994.541 4928719.672 22089152.833 10 0 59338 71100.00000 0 -11305586.804 2182220.027 22726955.685 10 0 59338 72000.00000 0 -11124785.029 -633981.224 22921810.721 10 0 59338 72900.00000 0 -11145222.608 -3451104.544 22670414.515 10 0 59338 73800.00000 0 -11362432.317 -6200272.141 21978164.906 10 0 59338 74700.00000 0 -11760081.982 -8815129.231 20859016.596 10 0 59338 75600.00000 0 -12310726.451 -11234351.408 19335171.657 10 0 59338 76500.00000 0 -12977040.840 -13403935.631 17436613.757 10 0 59338 77400.00000 0 -13713480.235 -15279182.261 15200497.581 10 0 59338 78300.00000 0 -14468293.898 -16826289.392 12670407.182 10 0 59338 79200.00000 0 -15185808.112 -18023497.229 9895498.898 10 0 59338 80100.00000 0 -15808881.477 -18861739.126 6929546.119 10 0 59338 81000.00000 0 -16281430.256 -19344776.259 3829904.340 10 0 59338 81900.00000 0 -16550919.181 -19488813.910 656415.812 10 0 59338 82800.00000 0 -16570715.226 -19321618.059 -2529726.199 10 0 59338 83700.00000 0 -16302207.850 -18881171.023 -5667133.374 10 0 59338 84600.00000 0 -15716608.987 -18213922.962 -8695378.352 10 0 59338 85500.00000 0 -14796359.145 -17372712.013 -11556130.766 10 0 59339 0.00000 0 -13536081.890 -16414438.726 -14194253.885 10 0 59339 900.00000 0 -11943046.428 -15397590.207 -16558843.495 10 0 59339 1800.00000 0 -10037119.348 -14379714.780 -18604190.374 10 0 59339 2700.00000 0 -7850203.501 -13414951.164 -20290650.785 10 0 59339 3600.00000 0 -5425186.280 -12551712.366 -21585408.805 10 0 59339 4500.00000 0 -2814436.147 -11830620.448 -22463116.751 10 0 59339 5400.00000 0 -77906.110 -11282777.449 -22906401.307 10 0 59339 6300.00000 0 2719081.620 -10928445.281 -22906224.747 10 0 59339 7200.00000 0 5508281.781 -10776191.148 -22462092.625 10 0 59339 8100.00000 0 8221104.954 -10822536.595 -21582101.613 10 0 59339 9000.00000 0 10791224.604 -11052127.837 -20282823.638 10 0 59339 9900.00000 0 13157105.149 -11438423.652 -18589025.287 10 0 59339 10800.00000 0 15264345.995 -11944875.258 -16533224.571 10 0 59339 11700.00000 0 17067742.800 -12526551.510 -14155090.431 10 0 59339 12600.00000 0 18532977.787 -13132143.114 -11500693.951 10 0 59339 13500.00000 0 19637865.779 -13706262.352 -8621623.854 10 0 59339 14400.00000 0 20373100.847 -14191940.948 -5573982.393 10 0 59339 15300.00000 0 20742469.473 -14533218.964 -2417281.239 10 0 59339 16200.00000 0 20762519.237 -14677712.403 786740.060 10 0 59339 17100.00000 0 20461695.918 -14579047.255 3975348.014 10 0 59339 18000.00000 0 19878985.448 -14199052.740 7086074.529 10 0 59339 18900.00000 0 19062119.423 -13509616.801 10057973.713 10 0 59339 19800.00000 0 18065422.403 -12494121.447 12832848.125 10 0 59339 20700.00000 0 16947395.225 -11148394.406 15356416.956 10 0 59339 21600.00000 0 15768140.196 -9481134.890 17579400.464 10 0 59339 22500.00000 0 14586740.590 -7513794.830 19458497.210 10 0 59339 23400.00000 0 13458708.384 -5279921.021 20957233.636 10 0 59339 24300.00000 0 12433610.267 -2823987.228 22046669.066 10 0 59339 25200.00000 0 11552973.221 -199767.302 22705943.028 10 0 59339 26100.00000 0 10848557.892 2531680.139 22922655.683 10 0 59339 27000.00000 0 10341071.021 5304328.954 22693076.197 10 0 59339 27900.00000 0 10039368.631 8049706.181 22022177.721 10 0 59339 28800.00000 0 9940180.148 10699509.998 20923501.275 10 0 59339 29700.00000 0 10028361.172 13188215.948 19418854.175 10 0 59339 30600.00000 0 10277660.357 15455564.031 17537851.692 10 0 59339 31500.00000 0 10651964.536 17448825.209 15317313.265 10 0 59339 32400.00000 0 11106966.710 19124756.073 12800526.931 10 0 59339 33300.00000 0 11592184.705 20451163.998 10036397.502 10 0 59339 34200.00000 0 12053244.485 21408021.550 7078495.715 10 0 59339 35100.00000 0 12434332.079 21988087.759 3984026.732 10 0 59339 36000.00000 0 12680711.921 22197014.028 812737.291 10 0 59339 36900.00000 0 12741207.356 22052933.233 -2374218.520 10 0 59339 37800.00000 0 12570541.189 21585551.331 -5515434.707 10 0 59339 38700.00000 0 12131440.167 20834780.505 -8550409.827 10 0 59339 39600.00000 0 11396417.094 19848970.972 -11420684.480 10 0 59339 40500.00000 0 10349157.296 18682814.379 -14070940.370 10 0 59339 41400.00000 0 8985451.938 17395004.592 -16450042.281 10 0 59339 42300.00000 0 7313638.802 16045751.221 -18512005.004 10 0 59339 43200.00000 0 5354530.551 14694247.193 -20216868.587 10 0 59339 44100.00000 0 3140830.858 13396193.526 -21531466.372 10 0 59339 45000.00000 0 716059.246 12201482.652 -22430071.739 10 0 59339 45900.00000 0 -1866974.814 11152135.591 -22894911.084 10 0 59339 46800.00000 0 -4548089.621 10280578.629 -22916532.369 10 0 59339 47700.00000 0 -7261965.460 9608332.079 -22494020.473 10 0 59339 48600.00000 0 -9940606.450 9145167.376 -21635052.947 10 0 59339 49500.00000 0 -12515930.909 8888770.129 -20355792.171 10 0 59339 50400.00000 0 -14922384.417 8824926.134 -18680612.782 10 0 59339 51300.00000 0 -17099467.662 8928225.613 -16641666.280 10 0 59339 52200.00000 0 -18994073.183 9163259.024 -14278288.043 10 0 59339 53100.00000 0 -20562531.735 9486256.445 -11636255.528 10 0 59339 54000.00000 0 -21772280.206 9847102.854 -8766910.071 10 0 59339 54900.00000 0 -22603078.158 10191644.485 -5726158.183 10 0 59339 55800.00000 0 -23047718.817 10464187.759 -2573371.832 10 0 59339 56700.00000 0 -23112201.947 10610082.799 629789.901 10 0 59339 57600.00000 0 -22815359.455 10578278.854 3820612.829 10 0 59339 58500.00000 0 -22187948.695 10323739.413 6936586.402 10 0 59339 59400.00000 0 -21271252.207 9809610.444 9916661.311 10 0 59339 60300.00000 0 -20115244.644 9009045.839 12702477.868 10 0 59339 61200.00000 0 -18776406.992 7906609.356 15239537.638 10 0 59339 62100.00000 0 -17315283.735 6499191.208 17478292.505 10 0 59339 63000.00000 0 -15793889.640 4796399.137 19375127.634 10 0 59339 63900.00000 0 -14273078.987 2820407.288 20893217.681 10 0 59339 64800.00000 0 -12809990.833 605269.995 22003239.198 10 0 59339 65700.00000 0 -11455679.619 -1804269.022 22683925.905 10 0 59339 66600.00000 0 -10253031.299 -4354419.923 22922457.444 10 0 59339 67500.00000 0 -9235051.773 -6984371.393 22714676.254 10 0 59339 68400.00000 0 -8423597.377 -9628610.024 22065131.039 10 0 59339 69300.00000 0 -7828597.643 -12219436.074 20986948.937 10 0 59339 70200.00000 0 -7447799.037 -14689570.092 19501541.907 10 0 59339 71100.00000 0 -7267036.182 -16974742.222 17638155.829 10 0 59339 72000.00000 0 -7261015.038 -19016157.622 15433273.555 10 0 59339 72900.00000 0 -7394571.366 -20762737.750 12929885.458 10 0 59339 73800.00000 0 -7624348.628 -22173047.297 10176642.909 10 0 59339 74700.00000 0 -7900822.827 -23216830.020 7226911.866 10 0 59339 75600.00000 0 -8170588.185 -23876093.317 4137744.874 10 0 59339 76500.00000 0 -8378807.698 -24145699.922 968790.733 10 0 59339 77400.00000 0 -8471726.547 -24033445.160 -2218838.186 10 0 59339 78300.00000 0 -8399144.407 -23559618.957 -5363720.854 10 0 59339 79200.00000 0 -8116744.806 -22756072.304 -8405284.503 10 0 59339 80100.00000 0 -7588185.802 -21664827.577 -11284943.519 10 0 59339 81000.00000 0 -6786865.964 -20336290.086 -13947200.862 10 0 59339 81900.00000 0 -5697292.696 -18827133.939 -16340693.261 10 0 59339 82800.00000 0 -4315995.778 -17197948.196 -18419162.225 10 0 59339 83700.00000 0 -2651946.997 -15510738.797 -20142334.125 10 0 59339 84600.00000 0 -726466.264 -13826387.621 -21476693.821 10 0 59339 85500.00000 0 1427384.878 -12202172.067 -22396137.620 10 0 59340 0.00000 0 3765900.974 -10689446.505 -22882493.078 10 0 59340 900.00000 0 6236280.727 -9331581.182 -22925894.805 10 0 59340 1800.00000 0 8778564.650 -8162243.644 -22525007.531 10 0 59340 2700.00000 0 11327887.298 -7204096.416 -21687089.721 10 0 59340 3600.00000 0 13816953.115 -6467965.330 -20427893.835 10 0 59340 4500.00000 0 16178635.931 -5952516.897 -18771401.749 10 0 59340 5400.00000 0 18348595.169 -5644460.386 -16749397.208 10 0 59340 6300.00000 0 20267799.842 -5519269.079 -14400880.314 10 0 59340 7200.00000 0 21884853.642 -5542392.845 -11771332.722 10 0 59340 8100.00000 0 23158021.684 -5670912.674 -8911845.711 10 0 59340 9000.00000 0 24056870.944 -5855568.094 -5878126.943 10 0 59340 9900.00000 0 24563452.189 -6043071.363 -2729405.193 10 0 59340 10800.00000 0 24672970.545 -6178608.812 472744.676 10 0 59340 11700.00000 0 24393913.865 -6208420.582 3665631.651 10 0 59340 12600.00000 0 23747631.831 -6082345.802 6786706.577 10 0 59340 13500.00000 0 22767383.088 -5756221.130 9774820.401 10 0 59340 14400.00000 0 21496891.393 -5194026.826 12571454.558 10 0 59340 15300.00000 0 19988473.666 -4369685.593 15121895.946 10 0 59340 16200.00000 0 18300821.760 -3268435.008 17376330.562 10 0 59340 17100.00000 0 16496534.819 -1887713.405 19290832.151 10 0 59340 18000.00000 0 14639509.627 -237520.980 20828225.042 10 0 59340 18900.00000 0 12792301.826 1659758.899 21958803.941 10 0 59340 19800.00000 0 11013571.096 3770069.498 22660897.166 10 0 59340 20700.00000 0 9355718.808 6048889.822 22921263.737 10 0 59340 21600.00000 0 7862816.984 8442890.134 22735318.764 10 0 59340 22500.00000 0 6568913.896 10891962.338 22107185.427 10 0 59340 23400.00000 0 5496784.593 13331538.416 21049575.484 10 0 59340 24300.00000 0 4657175.000 15695098.950 19583503.653 10 0 59340 25200.00000 0 4048566.922 17916766.777 17737844.229 10 0 59340 26100.00000 0 3657469.358 19933878.217 15548741.044 10 0 59340 27000.00000 0 3459219.553 21689426.357 13058884.196 10 0 59340 27900.00000 0 3419256.446 23134277.050 10316668.901 10 0 59340 28800.00000 0 3494810.220 24229068.270 7375253.553 10 0 59340 29700.00000 0 3636935.119 24945717.112 4291535.283 10 0 59340 30600.00000 0 3792799.394 25268475.047 1125062.189 10 0 59340 31500.00000 0 3908136.452 25194490.517 -2063097.756 10 0 59340 32400.00000 0 3929755.348 24733857.988 -5211511.025 10 0 59340 33300.00000 0 3808006.855 23909153.133 -8259535.857 10 0 59340 34200.00000 0 3499103.593 22754474.240 -11148462.524 10 0 59340 35100.00000 0 2967198.702 21314029.584 -13822617.066 10 0 59340 36000.00000 0 2186137.346 19640328.316 -16230409.706 10 0 59340 36900.00000 0 1140808.389 17792048.221 -18325309.953 10 0 59340 37800.00000 0 -171960.611 15831666.449 -20066731.559 10 0 59340 38700.00000 0 -1743003.910 13822948.861 -21420811.742 10 0 59340 39600.00000 0 -3550932.708 11828399.648 -22361070.395 10 0 59340 40500.00000 0 -5562763.535 9906774.734 -22868936.681 10 0 59340 41400.00000 0 -7735037.947 8110760.577 -22934132.114 10 0 59340 42300.00000 0 -10015391.319 6484914.010 -22554901.220 10 0 59340 43200.00000 0 -12344510.003 5063948.885 -21738083.077 10 0 59340 44100.00000 0 -14658399.424 3871441.857 -20499019.536 10 0 59340 45000.00000 0 -16890871.808 2919013.174 -18861298.670 10 0 59340 45900.00000 0 -18976151.966 2206019.043 -16856335.067 10 0 59340 46800.00000 0 -20851493.159 1719771.073 -14522791.861 10 0 59340 47700.00000 0 -22459693.087 1436276.115 -11905852.943 10 0 59340 48600.00000 0 -23751402.884 1321467.351 -9056357.413 10 0 59340 49500.00000 0 -24687129.503 1332875.892 -6029811.826 10 0 59340 50400.00000 0 -25238843.975 1421672.442 -2885299.413 10 0 59340 51300.00000 0 -25391124.401 1534991.500 315691.601 10 0 59340 52200.00000 0 -25141782.313 1618437.461 3510495.868 10 0 59340 53100.00000 0 -24501943.573 1618663.129 6636528.176 10 0 59340 54000.00000 0 -23495579.034 1485907.405 9632542.309 10 0 59340 54900.00000 0 -22158504.603 1176380.321 12439863.414 10 0 59340 55800.00000 0 -20536894.024 654390.339 15003566.238 10 0 59340 56700.00000 0 -18685369.267 -105879.700 17273573.271 10 0 59340 57600.00000 0 -16664751.872 -1119025.686 19205648.975 10 0 59340 58500.00000 0 -14539573.230 -2387562.785 20762269.166 10 0 59340 59400.00000 0 -12375451.575 -3901590.025 21913348.134 10 0 59340 60300.00000 0 -10236448.408 -5638992.291 22636809.790 10 0 59340 61200.00000 0 -8182516.895 -7566169.600 22918993.075 10 0 59340 62100.00000 0 -6267149.579 -9639260.839 22754885.889 10 0 59340 63000.00000 0 -4535322.927 -11805808.353 22148185.598 10 0 59340 63900.00000 0 -3021822.609 -14006791.354 21111187.922 10 0 59340 64800.00000 0 -1750016.209 -16178941.489 19664509.358 10 0 59340 65700.00000 0 -731120.549 -18257242.782 17836651.345 10 0 59340 66600.00000 0 36010.240 -20177511.504 15663417.168 10 0 59340 67500.00000 0 564571.718 -21878949.145 13187194.894 10 0 59340 68400.00000 0 878988.605 -23306563.795 10456121.638 10 0 59340 69300.00000 0 1013624.677 -24413361.324 7523146.139 10 0 59340 70200.00000 0 1011079.907 -25162217.981 4445007.901 10 0 59340 71100.00000 0 920147.877 -25527359.437 1281152.039 10 0 59340 72000.00000 0 793519.685 -25495387.588 -1907400.219 10 0 59340 72900.00000 0 685330.282 -25065814.902 -5059205.241 10 0 59340 73800.00000 0 648648.960 -24251085.907 -8113554.717 10 0 59340 74700.00000 0 733017.539 -23076085.966 -11011617.274 10 0 59340 75600.00000 0 982137.642 -21577157.786 -13697544.518 10 0 59340 76500.00000 0 1431802.283 -19800665.658 -16119522.632 10 0 59340 77400.00000 0 2108157.258 -17801165.316 -18230751.494 10 0 59340 78300.00000 0 3026364.756 -15639252.925 -19990334.435 10 0 59340 79200.00000 0 4189725.751 -13379179.571 -21364062.988 10 0 59340 80100.00000 0 5589299.590 -11086327.248 -22325082.268 10 0 59340 81000.00000 0 7204039.463 -8824648.190 -22854424.313 10 0 59340 81900.00000 0 9001441.839 -6654171.454 -22941398.410 10 0 59340 82800.00000 0 10938686.993 -4628678.723 -22583829.363 10 0 59340 83700.00000 0 12964227.622 -2793645.196 -21788136.927 10 0 59340 84600.00000 0 15019763.613 -1184531.485 -20569252.040 10 0 59340 85500.00000 0 17042524.204 174501.043 -18950368.280 99